SCOUT X-4 R/B, 809

Orbit data source: Space-Track

SCOUT X-4 R/B, 809 is space debris in LEO originally from a launch on Thu, 04 Jun 1964 UTC launched from the Air Force Western Test Range (AFWTR). Debris objects in space refer to the collection of defunct objects orbiting the Earth. Examples of debris include non-operational satellites, rocket bodies, and fragments generated from explosions, collisions, or faulty payload assembly.

Loading next visibility...
Identifier
809, 1964-026D
Orbit
LEO
Country
Flag of USUS
Related business
Manufacturer
ABL
Mission
Spacecraft
Bus & Motor
ALTAIR, Unknown motor
Mass
33 kg wet, 33 kg dry
Launch date (UTC)
1964-06-04 (62 years ago)
Launch vehicle
Unknown
Launch site
Air Force Western Test Range (AFWTR)
Object type
Payload
Rocket body
Debris
Shape & HBR
Unknown
Radar Cross Section
Medium (>0.1 m² and <1 m²)

Expand to show TLE details & history
Last TLE update: 14 hours ago

TLE from 14 hours ago
0 SCOUT X-4 R/B
1   809U 64026D   26163.79984346  .00000078  00000-0  37567-4 0  9990
2   809  90.4416 177.6363 0042319  78.3585 282.2345 14.10795891177524
Epoch: 2026-06-12T19:11Z
TLE epoch observation values (Epoch: 2026-06-12T19:11:46.474Z)
Latitude
-0.00006°
Longitude
-11.43144°
Altitude
853.325 km
Speed
7.429 km/s
True Right ascension
11h 50m 32s
True Declination
0° 00' 00"
Sunlit
Object was in daylight at epoch
Visualization orbit readout
Latitude
Unknown
Longitude
Unknown
Altitude
Unknown
Speed
Unknown
Apparent Right ascension
Unknown
Apparent Declination
Unknown
Sunlit
N/A
Visualization observer readout
Local Sidereal Time
19:37:26
Azimuth
Unknown
Elevation
Unknown
Doppler factor
Unknown
Orbital elements
Apogee altitude
884.216 km
Perigee altitude
823.008 km
Semi-major axis
7,231.749 km
Eccentricity
0.00423
Inclination
90.4416°
RAAN
177.6363°
Arg. of periapsis
78.3585°
True anomaly
281.76005°
Mean anomaly
282.2345°
Eccentric anomaly
281.99733°
Mean motion
3.52922 °/min
Orbital period
102.01 mins
BSTAR
0.000037567
Loading maneuver chart data...
Computing Atmospheric mass density...
Loading historical data...
Loading historical data...
Loading historical data...
Loading historical data...
Loading historical data...
Loading historical data...
Loading historical data...

Documentation

Showing up to 5 results
|